HULIANWANG DIGUI-36

Satellite information

Favourite Embed

Satellite Type and Status

PAYLOADIN ORBIT

Key statistics

Satellite HULIANWANG DIGUI-36 at a glance.

Uptime

85

Days in orbit

Revolutions

≈ 13.2

Per day

Orbit

LEO

Low Earth Orbit

Inclination

86.5

Latest

Satellite identification and parameters

Extended collection of information and parameters for HULIANWANG DIGUI-36.

Object identification

Identified? True

Debris? False

Object name: HULIANWANG DIGUI-36

International designator: 2025-159B

Object number (NORAD): 64957

Object ID (CCSDS): 64957

Country: PEOPLES REPUBLIC OF CHINA (PRC)

Current information (Y/N): Y

RCS size: LARGE

Orbital parameters

Period: 108.727 minutes

Inclination: 86.5043 deg

SMA: 7546.007 km

Apoapsis: 1168.978 km

Periapsis: 1166.766 km

RAAN: 3.5856 deg

Eccentricy: 0.00014658

Argument of periapsis: 98.4547 deg

Mean anomaly: 261.6753 deg

Mean motion: 13.24423692 rev/day

Mean motion (dot): 0.00000081 rev/day2

B* drag term: 0.0001548624 1/REarth

Two-line elements (TLE)

Creation date: Oct. 20, 2025, 2:10 a.m.

Reference frame: TEME

Reference center: EARTH

Epoch: Oct. 19, 2025, 10:17 p.m. UTC

TLE line 0: 0 HULIANWANG DIGUI-36

TLE line 1: 1 64957U 25159B 25292.92914799 .00000081 00000-0 15486-3 0 9999

TLE line 2: 2 64957 86.5043 3.5856 0001466 98.4547 261.6753 13.24423692 11323

Live tracking on map

Real-time ground track for satellite HULIANWANG DIGUI-36.

In-orbit conjunctions

There are no conjunctions computed for HULIANWANG DIGUI-36, at the moment. Check back to stay up to date, as we update our databases every day.

Go to all conjunctions

Associated space launch

A batch of 5 Low Earth Orbit communication satellites for the Chinese state owned SatNet constellation operated by the China Satellite Network Group. The constellation will eventually consists of 13000 satellites.

HULIANWANG DIGUI-36 was lifted into orbit during the mission ‘Long March 6A | SatNet LEO Group 05’, on board a Long March 6A space rocket.

The launch took place on July 27, 2025, 10:03 a.m. from Launch Complex 9A.

For more information about the launch, click the button.

Launch to space Long March 6A | SatNet LEO Group 05
Long March 6A | SatNet LEO Group 05

Agency: N/A

Status: Launch Successful

Launch date: July 27, 2025, 10:03 a.m. UTC

Rocket: Long March 6A

Launch pad: Launch Complex 9A

Location: Taiyuan Satellite Launch Center, People's Republic of China

...

Latest news about this satellite

There are no fresh news available about this satellite. Check back as we update our databases every day.


Newsletter sign-up

Weekly statistics, charts and insights to help you stay on top of the space industry.